Time,TemperatureF,DewpointF,PressureIn,WindDirection,WindDirectionDegrees,WindSpeedMPH,WindSpeedGustMPH,Humidity,HourlyPrecipIn,Conditions,Clouds,dailyrainin,SoftwareType,DateUTC
2013-02-12 17:36:00,32.1,22.8,28.98,North,0,10.0,16.7,68,0.00,,,0.00,WUHU216HW,2013-02-12 22:36:00,
2013-02-12 17:41:00,31.8,22.9,28.98,North,0,13.4,16.7,69,0.00,,,0.17,WUHU216HW,2013-02-12 22:41:00,
2013-02-12 17:46:00,31.8,22.8,29.19,SSW,203,8.2,15.6,69,0.00,,,0.17,WUHU216HW,2013-02-12 22:46:00,
2013-02-12 17:51:00,31.8,23.1,29.19,NNW,338,11.6,15.6,70,0.00,,,0.17,WUHU216HW,2013-02-12 22:51:00,
2013-02-12 17:56:00,31.8,23.1,29.20,NNW,338,8.2,11.6,70,0.00,,,0.17,WUHU216HW,2013-02-12 22:56:00,
2013-02-12 18:01:00,31.8,23.1,29.20,North,0,7.8,11.6,70,0.00,,,0.17,WUHU216HW,2013-02-12 23:01:00,
2013-02-12 18:06:00,31.6,23.3,29.20,North,0,9.6,12.3,71,0.00,,,0.17,WUHU216HW,2013-02-12 23:06:00,
2013-02-12 18:11:00,31.6,23.3,29.20,North,0,10.7,12.3,71,0.00,,,0.17,WUHU216HW,2013-02-12 23:11:00,
2013-02-12 18:16:00,31.6,23.3,29.21,NNW,338,8.2,12.7,71,0.00,,,0.17,WUHU216HW,2013-02-12 23:16:00,
2013-02-12 18:21:00,31.6,23.3,29.21,North,0,14.7,14.7,71,0.00,,,0.17,WUHU216HW,2013-02-12 23:21:00,
2013-02-12 18:26:00,31.6,23.3,29.21,North,0,11.4,14.7,71,0.00,,,0.17,WUHU216HW,2013-02-12 23:26:00,
2013-02-12 18:31:00,31.8,23.5,29.22,North,0,13.8,13.8,71,0.00,,,0.17,WUHU216HW,2013-02-12 23:31:00,
2013-02-12 18:36:00,31.8,23.1,29.22,North,0,11.6,13.8,70,0.00,,,0.17,WUHU216HW,2013-02-12 23:36:00,
2013-02-12 18:41:00,31.8,23.1,29.22,SW,225,16.7,16.7,70,0.00,,,0.17,WUHU216HW,2013-02-12 23:41:00,
2013-02-12 18:46:00,31.8,23.1,29.22,North,0,15.4,16.7,70,0.00,,,0.17,WUHU216HW,2013-02-12 23:46:00,
2013-02-12 18:51:00,31.8,23.1,29.22,SSW,203,16.1,16.1,70,0.00,,,0.17,WUHU216HW,2013-02-12 23:51:00,
2013-02-12 18:56:00,31.6,23.0,29.23,SSW,203,11.8,16.1,70,0.00,,,0.17,WUHU216HW,2013-02-12 23:56:00,
2013-02-12 19:01:00,31.6,23.0,29.23,SSW,203,10.7,13.8,70,0.00,,,0.17,WUHU216HW,2013-02-13 00:01:00,
2013-02-12 19:06:00,31.6,23.3,29.22,North,0,15.4,15.4,71,0.00,,,0.17,WUHU216HW,2013-02-13 00:06:00,
2013-02-12 19:11:00,31.6,23.0,29.22,SSW,203,10.7,15.4,70,0.00,,,0.17,WUHU216HW,2013-02-13 00:11:00,
2013-02-12 19:16:00,31.6,23.0,29.23,SSW,203,8.5,15.4,70,0.00,,,0.17,WUHU216HW,2013-02-13 00:16:00,
2013-02-12 19:21:00,31.6,23.0,29.23,SSW,203,17.0,17.0,70,0.00,,,0.17,WUHU216HW,2013-02-13 00:21:00,
2013-02-12 19:26:00,31.6,23.0,29.23,North,0,14.7,17.0,70,0.00,,,0.17,WUHU216HW,2013-02-13 00:26:00,
2013-02-12 19:31:00,31.6,23.0,29.23,North,0,8.7,14.7,70,0.00,,,0.17,WUHU216HW,2013-02-13 00:31:00,
2013-02-12 19:36:00,31.6,23.0,29.23,SSW,203,11.6,13.4,70,0.00,,,0.17,WUHU216HW,2013-02-13 00:36:00,
2013-02-12 19:41:00,31.6,23.0,29.23,North,0,9.3,11.6,70,0.00,,,0.17,WUHU216HW,2013-02-13 00:41:00,
2013-02-12 19:46:00,31.6,23.0,29.23,North,0,9.8,9.8,70,0.00,,,0.17,WUHU216HW,2013-02-13 00:46:00,
2013-02-12 19:51:00,31.6,23.0,29.23,North,0,16.1,16.1,70,0.00,,,0.17,WUHU216HW,2013-02-13 00:51:00,
2013-02-12 19:56:00,31.6,23.0,29.23,North,0,10.2,16.1,70,0.00,,,0.17,WUHU216HW,2013-02-13 00:56:00,
2013-02-12 20:01:00,31.6,23.0,29.23,SSW,203,5.5,10.2,70,0.00,,,0.17,WUHU216HW,2013-02-13 01:01:00,
2013-02-12 20:06:00,31.6,22.6,29.23,SSW,203,9.6,10.0,69,0.00,,,0.17,WUHU216HW,2013-02-13 01:06:00,
2013-02-12 20:11:00,31.6,23.0,29.23,SSW,203,7.8,10.0,70,0.00,,,0.17,WUHU216HW,2013-02-13 01:11:00,
2013-02-12 20:16:00,31.6,23.0,29.23,North,0,5.5,11.1,70,0.00,,,0.17,WUHU216HW,2013-02-13 01:16:00,
2013-02-12 20:21:00,31.6,23.0,29.23,SSW,203,7.6,11.1,70,0.00,,,0.17,WUHU216HW,2013-02-13 01:21:00,
2013-02-12 20:26:00,31.8,23.1,29.23,SSW,203,6.4,11.1,70,0.00,,,0.17,WUHU216HW,2013-02-13 01:26:00,
2013-02-12 20:31:00,31.8,23.1,29.23,North,0,9.6,11.1,70,0.00,,,0.17,WUHU216HW,2013-02-13 01:31:00,
2013-02-12 20:36:00,31.6,23.0,29.23,SSW,203,7.6,10.0,70,0.00,,,0.17,WUHU216HW,2013-02-13 01:36:00,
2013-02-12 20:41:00,31.6,23.3,29.23,SSW,203,5.5,10.0,71,0.00,,,0.17,WUHU216HW,2013-02-13 01:41:00,
2013-02-12 20:46:00,31.6,23.3,29.23,SSW,203,9.6,12.0,71,0.00,,,0.17,WUHU216HW,2013-02-13 01:46:00,
2013-02-12 20:51:00,31.6,23.3,29.23,SSW,203,8.9,12.0,71,0.00,,,0.17,WUHU216HW,2013-02-13 01:51:00,
2013-02-12 20:56:00,31.6,23.6,29.22,SW,225,7.8,10.0,72,0.00,,,0.17,WUHU216HW,2013-02-13 01:56:00,
2013-02-12 21:01:00,31.6,23.6,29.23,SSW,203,7.6,11.6,72,0.00,,,0.17,WUHU216HW,2013-02-13 02:01:00,
2013-02-12 21:06:00,31.6,23.6,29.22,North,0,8.0,11.6,72,0.00,,,0.17,WUHU216HW,2013-02-13 02:06:00,
2013-02-12 21:11:00,31.6,23.3,29.22,North,0,7.1,9.8,71,0.00,,,0.17,WUHU216HW,2013-02-13 02:11:00,
2013-02-12 21:16:00,31.6,23.3,29.22,North,0,6.7,9.8,71,0.00,,,0.17,WUHU216HW,2013-02-13 02:16:00,
2013-02-12 21:21:00,31.6,23.6,29.22,NNW,338,8.7,8.7,72,0.00,,,0.17,WUHU216HW,2013-02-13 02:21:00,
2013-02-12 21:26:00,31.6,23.6,29.22,North,0,8.7,8.9,72,0.00,,,0.17,WUHU216HW,2013-02-13 02:26:00,
2013-02-12 21:31:00,31.6,23.6,29.21,North,0,11.4,11.4,72,0.00,,,0.17,WUHU216HW,2013-02-13 02:31:00,
2013-02-12 21:36:00,31.4,23.1,29.21,SSW,203,11.4,11.4,71,0.00,,,0.17,WUHU216HW,2013-02-13 02:36:00,
2013-02-12 21:41:00,31.6,23.6,29.21,North,0,17.6,17.6,72,0.00,,,0.17,WUHU216HW,2013-02-13 02:41:00,
2013-02-12 21:46:00,31.4,23.4,29.21,North,0,14.5,17.6,72,0.00,,,0.17,WUHU216HW,2013-02-13 02:46:00,
2013-02-12 21:51:00,31.6,23.6,29.20,North,0,10.2,16.1,72,0.00,,,0.17,WUHU216HW,2013-02-13 02:51:00,
2013-02-12 21:56:00,31.2,23.2,29.20,NNW,338,6.7,16.1,72,0.00,,,0.17,WUHU216HW,2013-02-13 02:56:00,
2013-02-12 22:01:00,31.2,23.2,29.20,SSW,203,12.3,14.0,72,0.00,,,0.17,WUHU216HW,2013-02-13 03:01:00,
2013-02-12 22:07:00,31.2,23.6,29.20,North,0,7.8,14.0,73,0.00,,,0.17,WUHU216HW,2013-02-13 03:07:00,
2013-02-12 22:12:00,31.2,23.6,29.20,North,0,8.5,8.5,73,0.12,,,0.29,WUHU216HW,2013-02-13 03:12:00,
2013-02-12 22:17:00,31.2,23.6,29.20,North,0,6.9,8.9,73,0.12,,,0.29,WUHU216HW,2013-02-13 03:17:00,
2013-02-12 22:22:00,31.2,23.6,29.20,North,0,8.0,8.9,73,0.12,,,0.29,WUHU216HW,2013-02-13 03:22:00,
2013-02-12 22:27:00,31.2,23.6,29.20,North,0,10.5,10.5,73,0.12,,,0.29,WUHU216HW,2013-02-13 03:27:00,
2013-02-12 22:32:00,31.2,23.6,29.19,North,0,9.3,10.5,73,0.12,,,0.29,WUHU216HW,2013-02-13 03:32:00,
2013-02-12 22:37:00,31.2,23.6,29.20,North,0,8.0,10.5,73,0.12,,,0.29,WUHU216HW,2013-02-13 03:37:00,
2013-02-12 22:42:00,31.1,23.4,29.20,SSW,203,10.9,10.9,73,0.12,,,0.29,WUHU216HW,2013-02-13 03:42:00,
2013-02-12 22:48:00,31.1,23.7,29.19,North,0,5.3,10.9,74,0.12,,,0.29,WUHU216HW,2013-02-13 03:48:00,
2013-02-12 22:53:00,31.1,23.7,29.19,NNW,338,6.9,8.2,74,0.12,,,0.29,WUHU216HW,2013-02-13 03:53:00,
2013-02-12 22:58:00,30.9,23.5,29.18,North,0,6.4,7.6,74,0.12,,,0.29,WUHU216HW,2013-02-13 03:58:00,
2013-02-12 23:03:00,30.9,23.5,29.19,North,0,6.2,7.6,74,0.12,,,0.29,WUHU216HW,2013-02-13 04:03:00,
2013-02-12 23:08:00,30.9,23.5,29.19,North,0,4.4,6.4,74,0.00,,,0.29,WUHU216HW,2013-02-13 04:08:00,
2013-02-12 23:13:00,30.9,23.5,29.19,North,0,6.0,6.4,74,0.00,,,0.29,WUHU216HW,2013-02-13 04:13:00,
2013-02-12 23:18:00,30.9,23.9,29.19,North,0,6.9,6.9,75,0.00,,,0.29,WUHU216HW,2013-02-13 04:18:00,
2013-02-12 23:23:00,30.9,23.9,29.19,North,0,6.9,6.9,75,0.00,,,0.29,WUHU216HW,2013-02-13 04:23:00,
2013-02-12 23:29:00,30.9,23.9,29.19,North,0,7.1,7.1,75,0.00,,,0.29,WUHU216HW,2013-02-13 04:29:00,
2013-02-12 23:31:00,30.9,23.9,29.19,North,0,6.2,7.1,75,0.00,,,0.29,WUHU216HW,2013-02-13 04:31:00,